This demonstration page uses our WeatherBlox Daily Observations layout. Learn more.

Left ArrowRight Arrow

36.19886, -115.1175

Hourly Observations for February 19, 2022

Temp ( °F °C ) Dew Point ( °F °C ) Humidity (%) Winds ( mph kmh ) Pressure ( in mb ) Visibility ( mi km ) Precip ( " mm )
12:53 am 00:53 Clear 48 8.9 16 -8.9 28 28 NNW 3 6 30.27 1025 10 16 0.00 0.00
1:53 am 01:53 Clear 48 8.9 17 -8.3 29 29 WNW 8 13 30.26 1025 10 16 0.00 0.00
2:53 am 02:53 Clear 47 8.3 18 -7.8 31 31 W 6 9 30.25 1025 10 16 0.00 0.00
3:53 am 03:53 Clear 45 7.2 17 -8.3 33 33 WNW 7 11 30.25 1024 10 16 0.00 0.00
4:53 am 04:53 Clear 46 7.8 18 -7.8 32 32 WNW 3 6 30.25 1025 10 16 0.00 0.00
5:53 am 05:53 Clear 46 7.8 17 -8.3 31 31 WNW 3 6 30.26 1025 10 16 0.00 0.00
6:53 am 06:53 Sunny 46 7.8 16 -8.9 30 30 WNW 3 6 30.27 1025 10 16 0.00 0.00
7:53 am 07:53 Sunny 53 11.7 18 -7.8 25 25 WNW 7 11 30.28 1026 10 16 0.00 0.00
8:53 am 08:53 Sunny 57 13.9 17 -8.3 21 21 NNE 8 13 30.29 1026 10 16 0.00 0.00
9:53 am 09:53 Sunny 62 16.7 17 -8.3 17 17 Calm 30.27 1025 10 16 0.00 0.00
10:53 am 10:53 Sunny 62 16.7 17 -8.3 17 17 SSE 3 6 30.25 1024 10 16 0.00 0.00
11:53 am 11:53 Sunny 65 18.3 18 -7.8 16 16 E 6 9 30.22 1023 10 16 0.00 0.00
12:53 pm 12:53 Sunny 67 19.4 17 -8.3 15 15 ESE 6 9 30.16 1022 10 16 0.00 0.00
1:53 pm 13:53 Sunny 68 20 17 -8.3 14 14 VRB 3 6 30.13 1020 10 16 0.00 0.00
2:53 pm 14:53 Sunny 69 20.6 15 -9.4 12 12 SSE 3 6 30.10 1019 10 16 0.00 0.00
3:53 pm 15:53 Sunny 69 20.6 15 -9.4 12 12 E 5 7 30.08 1019 10 16 0.00 0.00
4:53 pm 16:53 Sunny 69 20.6 15 -9.4 12 12 Calm 30.06 1018 10 16 0.00 0.00
5:53 pm 17:53 Clear 66 18.9 15 -9.4 14 14 ENE 3 6 30.07 1018 10 16 0.00 0.00
6:53 pm 18:53 Clear 62 16.7 17 -8.3 17 17 N 3 6 30.07 1018 10 16 0.00 0.00
7:53 pm 19:53 Clear 57 13.9 18 -7.8 22 22 WNW 5 7 30.07 1018 10 16 0.00 0.00
8:53 pm 20:53 Clear 55 12.8 20 -6.7 25 25 NW 7 11 30.08 1019 10 16 0.00 0.00
9:53 pm 21:53 Clear 53 11.7 18 -7.8 25 25 WNW 7 11 30.08 1019 10 16 0.00 0.00
10:53 pm 22:53 Clear 51 10.6 18 -7.8 27 27 NNW 6 9 30.06 1018 10 16 0.00 0.00
11:53 pm 23:53 Clear 49 9.4 18 -7.8 29 29 NW 7 11 30.06 1018 10 16 0.00 0.00

Powered by AerisWeather